Location: *
(34.8620°S, 39.3380°E)
Time: 00:23:05
(UTC+00:00)

YAOGAN 1 - Pass Details

Date: 27 July 2021
Orbit: 618 x 620 km, 97.9° (Epoch: 20 September)

Event Time Altitude Azimuth Distance (km) Brightness Sun altitude
Rises 03:40:15 0° 34° (NE) 2,887 6.9 -8.6°
Reaches altitude 10° 03:42:34 10° 43° (NE) 1,990 6.2 -8.2°
Maximum altitude 03:46:29 35° 108° (ESE) 1,026 4.3 -7.4°
Drops below altitude 10° 03:50:28 10° 173° (S) 2,014 5.1 -6.7°
Sets 03:52:48 0° 181° (S) 2,929 5.8 -6.2°
